Regional Weather Roundup
Issued by NWS

Home | Current Version | Previous Version | Graphics & Text | Print | Product List | Glossary On
Versions: 1 2 3 4 5 6 7 8 9 10 11 12 13 14 15 16 17 18 19 20 21 22 23 24 25 26 27 28 29 30 31 32 33 34 35 36 37 38 39 40 41 42 43 44 45 46 47 48 49 50
000
ASUS43 KFSD 271210
RWRSD

WEATHER ROUNDUP FOR SOUTH DAKOTA
NATIONAL WEATHER SERVICE SIOUX FALLS SD
700 AM CDT SAT AUG 27 2016

NOTE: "FAIR" INDICATES FEW OR NO CLOUDS BELOW 12,000 FEET WITH NO
SIGNIFICANT WEATHER AND/OR OBSTRUCTIONS TO VISIBILITY.


SDZ001>005-009-010-012>017-271300-
NORTHWEST AND NORTH CENTRAL SOUTH DAKOTA

CITY           SKY/WX    TMP DP  RH WIND       PRES   REMARKS
BUFFALO          N/A     45  45 100 NW5       29.91S
FAITH            N/A     49  49 100 S9        29.97R
MOBRIDGE       PTCLDY    56  52  86 S3        29.92S
$$

SDZ012>016-024>037-041>051-057-063-072>074-271300-
SOUTHWEST AND SOUTH CENTRAL SOUTH DAKOTA

CITY           SKY/WX    TMP DP  RH WIND       PRES   REMARKS
RAPID CTY ARPT LGT RAIN  53  51  93 E6        30.00S
PIERRE         CLOUDY    56  54  93 SW7       29.96R
CUSTER         PTCLDY    49  46  90 NW3       30.10R
ELLSWORTH AFB  PTCLDY    56  53  91 S10       29.98
PHILIP         PTCLDY    55  52  89 CALM      30.00R
PINE RIDGE     CLEAR     49  49 100 SE5       30.03R
WINNER         FAIR      59  56  89 S10       29.98F
$$

SDZ004>011-016>023-039-040-271300-
NORTHEAST SOUTH DAKOTA

CITY           SKY/WX    TMP DP  RH WIND       PRES   REMARKS
ABERDEEN       MOCLDY    59  57  93 S10       29.96F
WATERTOWN      CLOUDY    61  59  93 S7        30.01F
BROOKINGS      CLOUDY    59  57  93 SE7       30.03R
SISSETON         N/A     60  58  92 S7        29.98S
$$

SDZ017-020-022-023-036>040-048>070-271300-
SOUTHEAST SOUTH DAKOTA

CITY           SKY/WX    TMP DP  RH WIND       PRES   REMARKS
SIOUX FALLS    CLOUDY    61  61 100 E5        30.02S FOG
HURON          FOG       58  58 100 SE7       29.97F VSB 1/4
CHAMBERLAIN    CLEAR     57  57 100 SE6       29.97F FOG
MITCHELL       MOCLDY    62  60  93 SE6       30.00F
YANKTON        CLOUDY    63  61  94 CALM      30.01R
$$

ABBREVIATIONS USED IN REMARKS
   TC - TEMPERATURE IN CELSIUS
  WCI - WIND CHILL INDEX
   HX - HEAT INDEX
  VSB - VISIBILITY





USA.gov is the U.S. government's official web portal to all federal, state and local government web resources and services.